TimeCDT,TemperatureF,Dew PointF,Humidity,Sea Level PressureIn,VisibilityMPH,Wind Direction,Wind SpeedMPH,Gust SpeedMPH,PrecipitationIn,Events,Conditions,WindDirDegrees,DateUTC
12:53 AM,-2.0,-11.9,63,30.37,10.0,NNE,5.8,-,N/A,,Clear,30,2013-03-17 05:53:00
1:53 AM,-4.0,-11.9,69,30.36,10.0,ENE,4.6,-,N/A,,Clear,70,2013-03-17 06:53:00
2:53 AM,-6.0,-14.1,68,30.35,10.0,Calm,Calm,-,N/A,,Clear,0,2013-03-17 07:53:00
3:53 AM,-11.0,-17.0,75,30.34,10.0,Calm,Calm,-,N/A,,Clear,0,2013-03-17 08:53:00
4:53 AM,-11.9,-18.0,74,30.31,10.0,Calm,Calm,-,N/A,,Partly Cloudy,0,2013-03-17 09:53:00
5:53 AM,-9.9,-16.1,74,30.28,10.0,Calm,Calm,-,N/A,,Scattered Clouds,0,2013-03-17 10:53:00
6:53 AM,-6.0,-13.0,72,30.26,10.0,Calm,Calm,-,N/A,,Overcast,0,2013-03-17 11:53:00
7:53 AM,-0.9,-7.1,75,30.24,10.0,SE,6.9,-,N/A,,Overcast,140,2013-03-17 12:53:00
8:53 AM,3.0,-6.0,66,30.21,10.0,SE,11.5,-,N/A,,Overcast,140,2013-03-17 13:53:00
9:53 AM,6.1,-2.9,67,30.18,10.0,SSE,12.7,-,N/A,,Overcast,150,2013-03-17 14:53:00
10:53 AM,8.1,-0.9,67,30.14,10.0,SSE,19.6,25.3,N/A,,Overcast,150,2013-03-17 15:53:00
11:53 AM,10.0,1.0,67,30.11,5.0,SSE,18.4,31.1,0.00,Snow,Light Snow,150,2013-03-17 16:53:00
12:53 PM,12.0,3.0,67,30.08,9.0,SSE,18.4,28.8,0.00,,Overcast,150,2013-03-17 17:53:00
1:53 PM,14.0,3.9,64,30.04,8.0,SSE,23.0,31.1,0.00,,Overcast,150,2013-03-17 18:53:00
2:53 PM,15.1,6.1,68,29.99,9.0,SSE,19.6,28.8,N/A,,Overcast,150,2013-03-17 19:53:00
3:53 PM,17.1,8.1,68,29.94,10.0,SE,19.6,27.6,N/A,,Overcast,130,2013-03-17 20:53:00
4:53 PM,19.0,9.0,65,29.90,10.0,SE,17.3,27.6,N/A,,Overcast,140,2013-03-17 21:53:00
5:53 PM,19.9,10.0,65,29.86,10.0,SE,16.1,27.6,N/A,,Overcast,130,2013-03-17 22:53:00
6:37 PM,19.4,10.4,68,29.75,1.5,SE,21.9,34.5,0.00,Snow,Light Snow,130,2013-03-17 23:37:00
6:42 PM,19.4,12.2,74,29.73,0.2,SE,20.7,33.4,0.00,Snow,Heavy Snow,130,2013-03-17 23:42:00
6:51 PM,19.4,14.0,80,29.72,0.2,ESE,25.3,35.7,0.00,Snow,Heavy Snow,120,2013-03-17 23:51:00
6:53 PM,19.9,15.1,81,29.79,0.2,SE,25.3,35.7,0.00,Snow,Heavy Snow,130,2013-03-17 23:53:00
7:00 PM,19.4,15.8,86,29.72,1.0,SE,24.2,34.5,0.01,Snow,Light Snow,130,2013-03-18 00:00:00
7:08 PM,19.4,15.8,86,29.71,1.2,SE,24.2,34.5,0.01,Snow,Light Snow,130,2013-03-18 00:08:00
7:53 PM,21.0,15.1,78,29.75,1.2,SE,31.1,40.3,0.01,Snow,Light Snow,130,2013-03-18 00:53:00
8:14 PM,21.2,15.8,80,29.67,1.8,SE,24.2,35.7,0.01,Snow,Light Snow,130,2013-03-18 01:14:00
8:27 PM,21.2,15.8,80,29.68,0.8,SE,21.9,31.1,0.01,Snow,Light Snow,130,2013-03-18 01:27:00
8:36 PM,21.2,15.8,80,29.68,0.8,SE,17.3,34.5,0.02,Snow,Light Snow,140,2013-03-18 01:36:00
8:53 PM,21.9,17.1,82,29.74,0.8,SE,19.6,29.9,0.04,Snow,Light Snow,140,2013-03-18 01:53:00
9:12 PM,21.2,17.6,86,29.68,0.5,SSE,17.3,27.6,0.01,Snow,Snow,150,2013-03-18 02:12:00
9:36 PM,21.2,17.6,86,29.68,0.8,SE,18.4,31.1,0.05,Snow,Light Snow,140,2013-03-18 02:36:00
9:53 PM,23.0,18.0,81,29.73,0.8,SE,18.4,27.6,0.06,Snow,Light Snow,140,2013-03-18 02:53:00
10:00 PM,23.0,19.4,86,29.67,1.2,SE,19.6,27.6,0.01,Snow,Light Snow,140,2013-03-18 03:00:00
10:44 PM,24.8,19.4,80,29.65,2.0,SE,21.9,31.1,0.03,Snow,Light Snow,140,2013-03-18 03:44:00
10:51 PM,24.8,19.4,80,29.64,3.0,SE,19.6,29.9,0.03,Snow,Light Snow,140,2013-03-18 03:51:00
10:53 PM,24.1,19.0,81,29.69,3.0,SE,24.2,29.9,0.03,Snow,Light Snow,140,2013-03-18 03:53:00
11:03 PM,24.8,19.4,80,29.63,2.5,SE,18.4,34.5,0.01,Snow,Light Snow,140,2013-03-18 04:03:00
11:18 PM,24.8,19.4,80,29.62,1.8,SE,24.2,33.4,0.01,Snow,Light Snow,140,2013-03-18 04:18:00
11:53 PM,25.0,19.9,81,29.65,1.5,SE,24.2,35.7,0.01,Snow,Light Snow,140,2013-03-18 04:53:00